North Bennington, VT

2:09 AM EST on January 20, 2017 (GMT -0500)
Morse State

Weather History for KDDH - January, 2013

Change the Weather History Date:

Monday, January 14, 2013

  Actual Average Record
Temperature  
Mean Temperature 42 °F 21 °F  
Max Temperature 51 °F 30 °F 25 °F (2016)
Min Temperature 32 °F 11 °F -14 °F (2015)
Degree Days  
Heating Degree Days 23 44  
Month to date heating degree days 526 612  
Since 1 July heating degree days 2971 3384  
Cooling Degree Days 0 0  
Month to date cooling degree days 0 0  
Year to date cooling degree days 0 0  
Moisture  
Dew Point 36 °F    
Average Humidity 71    
Maximum Humidity 93    
Minimum Humidity 49    
Precipitation  
Precipitation 0.04 in 0.08 in 0.00 in (2017)
Month to date precipitation 0.21 1.41  
Year to date precipitation 0.21 1.41  
Sea Level Pressure  
Sea Level Pressure 30.07 in    
Wind  
Wind Speed 7 mph (WSW)    
Max Wind Speed 17 mph    
Max Gust Speed 28 mph    
Visibility 8 miles    
Events Rain    
T = Trace of Precipitation, MM = Missing Value Source: NWS Daily Summary

Daily Weather History Graph

Daily Weather History Graph

Search for Another Location

Airport or City:

Trip Planner

Search our weather history database for the weather conditions in past years. The results will help you decide how hot, cold, wet, or windy it might be!

Date:

Astronomy

Jan. 14, 2013 Rise Set
Actual Time 7:21 AM EST 4:43 PM EST
Civil Twilight 6:50 AM EST 5:14 PM EST
Nautical Twilight 6:15 AM EST 5:49 PM EST
Astronomical Twilight 5:41 AM EST 6:23 PM EST
Moon 8:47 AM EST (1/14) 8:32 PM EST (1/14)
Length of Visible Light 10h 24m
Length of Day
9h 21m
Waxing Crescent, 11% of the Moon is Illuminated
Jan 14
Waxing Crescent
Jan 18
First Quarter
Jan 26
Full
Feb 3
Last Quarter
Feb 10
New

Hourly Weather History & Observations

Time (EST) Temp. Windchill Dew Point Humidity Pressure Visibility Wind Dir Wind Speed Gust Speed Precip Events Conditions
12:54 AM 45.0 °F - 43.0 °F 93% 29.92 in 5.0 mi Calm Calm - N/A   Overcast
1:54 AM 46.0 °F - 43.0 °F 89% 29.92 in 8.0 mi Calm Calm - N/A   Overcast
2:54 AM 45.0 °F - 43.0 °F 93% 29.92 in 3.0 mi Calm Calm - 0.01 in Rain Light Rain
3:09 AM 44.6 °F - 42.8 °F 93% 29.92 in 2.0 mi Calm Calm - 0.01 in Rain Light Rain
3:40 AM 44.6 °F 43.1 °F 44.6 °F 100% 29.91 in 4.0 mi Variable 3.5 mph - 0.02 in Rain Light Rain
3:54 AM 46.0 °F 41.4 °F 43.0 °F 89% 29.87 in 6.0 mi SE 9.2 mph - 0.02 in Rain Light Rain
4:54 AM 51.1 °F - 45.0 °F 80% 29.83 in 10.0 mi West 6.9 mph - 0.01 in Rain Light Rain
5:54 AM 48.0 °F - 45.0 °F 89% 29.88 in 10.0 mi SSW 5.8 mph - 0.00 in   Partly Cloudy
6:54 AM 48.9 °F - 45.0 °F 86% 29.93 in 10.0 mi NNW 3.5 mph - N/A   Overcast
7:32 AM 48.2 °F - 44.6 °F 87% 29.99 in 7.0 mi WNW 8.1 mph - N/A   Overcast
7:37 AM 48.2 °F - 44.6 °F 87% 30.00 in 5.0 mi Variable 6.9 mph - N/A   Overcast
7:54 AM 48.9 °F - 46.0 °F 90% 30.01 in 5.0 mi WSW 9.2 mph - N/A   Overcast
8:24 AM 48.2 °F - 44.6 °F 87% 30.02 in 10.0 mi WSW 5.8 mph - N/A   Overcast
8:54 AM 46.9 °F - 43.0 °F 86% 30.04 in 10.0 mi WSW 10.4 mph - N/A   Overcast
9:54 AM 46.9 °F - 39.9 °F 77% 30.08 in 10.0 mi WSW 11.5 mph - N/A   Overcast
10:18 AM 44.6 °F 39.2 °F 39.2 °F 81% 30.08 in 10.0 mi West 10.4 mph 19.6 mph N/A   Overcast
10:54 AM 44.1 °F 38.1 °F 37.0 °F 76% 30.12 in 10.0 mi WSW 11.5 mph 24.2 mph N/A   Overcast
11:51 AM 44.6 °F 38.1 °F 35.6 °F 71% 30.10 in 10.0 mi West 13.8 mph 21.9 mph N/A   Scattered Clouds
11:54 AM 45.0 °F 39.7 °F 35.1 °F 68% 30.12 in 10.0 mi West 10.4 mph 23.0 mph N/A   Partly Cloudy
12:54 PM 45.0 °F 38.9 °F 32.0 °F 60% 30.12 in 10.0 mi West 12.7 mph 23.0 mph N/A   Clear
1:54 PM 45.0 °F 40.6 °F 28.9 °F 53% 30.15 in 10.0 mi West 8.1 mph 18.4 mph N/A   Clear
2:54 PM 44.1 °F 38.6 °F 27.0 °F 51% 30.17 in 10.0 mi WNW 10.4 mph - N/A   Clear
3:54 PM 41.0 °F 35.8 °F 25.0 °F 53% 30.19 in 10.0 mi West 8.1 mph - N/A   Clear
4:54 PM 39.0 °F 34.0 °F 24.1 °F 55% 30.19 in 10.0 mi WSW 6.9 mph - N/A   Clear
5:54 PM 35.1 °F 27.4 °F 23.0 °F 61% 30.20 in 10.0 mi West 10.4 mph 18.4 mph N/A   Clear
6:54 PM 34.0 °F 27.2 °F 21.9 °F 61% 30.26 in 10.0 mi West 8.1 mph - N/A   Clear
7:54 PM 33.1 °F 26.1 °F 21.9 °F 64% 30.28 in 10.0 mi West 8.1 mph - N/A   Clear
9:54 PM 32.0 °F 27.5 °F 21.0 °F 64% 30.26 in 10.0 mi SW 4.6 mph - N/A   Clear
10:54 PM 32.0 °F 26.4 °F 23.0 °F 69% 30.28 in 10.0 mi WSW 5.8 mph - N/A   Clear
11:54 PM 32.0 °F 26.4 °F 23.0 °F 69% 30.30 in 10.0 mi WSW 5.8 mph - N/A   Clear